Location: Goheenville
(40.9070°N, 79.3720°W)
Time: 12:47:03
(UTC-05:00)

Cosmos 1727 Rocket - Visible Passes

Search period start: 24 November 2014 00:00
Search period end: 04 December 2014 00:00
Orbit: 961 x 997 km, 82.9° (Epoch: 24 November)

Date Brightness Start Highest point End Pass type
(mag) Time Alt. Az. Time Alt. Az. Time Alt. Az.
28 Nov 6.0 18:58:59 10° NNE 18:59:24 12° NNE 18:59:24 12° NNE visible
29 Nov 5.8 19:24:57 10° N 19:26:13 17° N 19:26:13 17° N visible
30 Nov 5.8 18:07:40 10° NNE 18:08:25 12° NE 18:08:25 12° NE visible
30 Nov 5.7 19:51:16 10° N 19:53:13 21° NNW 19:53:13 21° NNW visible
01 Dec 5.2 18:32:52 10° NNE 18:35:41 22° NE 18:35:41 22° NE visible
01 Dec 5.8 20:17:57 10° NNW 20:20:31 24° NW 20:20:31 24° NW visible
02 Dec 4.3 18:58:46 10° N 19:03:36 45° NE 19:03:36 45° NE visible
02 Dec 6.1 20:45:07 10° NW 20:48:30 22° WNW 20:48:30 22° WNW visible
03 Dec 6.6 06:46:25 10° ESE 06:50:02 16° E 06:53:39 10° NE visible
03 Dec 5.4 17:41:47 10° NNE 17:45:06 14° ENE 17:48:24 10° E visible
03 Dec 3.9 19:25:02 10° N 19:31:23 87° W 19:37:44 10° S visible
03 Dec 6.7 21:13:36 10° WNW 21:15:49 12° WNW 21:18:02 10° W visible
